Home   Weather   Sarajevo   Past weeks

Flag for Bosnia-Herzegovina Past Weather in Sarajevo, Bosnia-Herzegovina — Yesterday and Last 2 Weeks

Now
39 °F

Sunny.


Feels Like: 39 °F
Forecast: 21 / 42 °F
Wind: 2 mph from North

Location: Sarajevo / Butmir

Current Time: Dec 8, 2016 at 3:25:39 pm

Latest Report: Dec 8, 2016 at 3:00 pm


Visibility: 10 mi

Pressure: 30.60 "Hg (28.68 "Hg at 526m altitude)

Humidity: 52%

Dew Point: 23 °F

Location of SarajevoLocation

Past Weather in Sarajevo — Graph

°F

Sarajevo Temperature Yesterday

Maximum temperature yesterday: 39 °F (at 1:00 pm)
Minimum temperature yesterday: 23 °F (at 11:00 pm)
Average temperature yesterday: 32 °F

High & Low Weather Summary for the Past Weeks

 TemperatureHumidityPressure
High61 °F (Nov 23, 2:30 pm)100% (Nov 23, 8:00 pm)30.69 "Hg (Nov 23, 8:00 pm)
Low18 °F (Dec 8, 5:00 am)46% (Dec 1, 2:00 pm)29.89 "Hg (Nov 27, 2:00 pm)
Average35 °F84%30.25 "Hg
* Reported Nov 23 2:00 pm — Dec 8 2:00 pm, Sarajevo, Weather by CustomWeather, © 2016

Note: Actual official high and low records may vary slightly from our data, if they occured in-between our weather recording intervals... More about our weather records

Advertising

Sarajevo Weather History for the Previous 24 Hours

Scroll right to see more
 ConditionsComfort  
Time TempWeatherWind HumidityBarometerVisibility
2:00 pm
Thu, Dec 8
39 °FSunny.2 mph56%30.60 "Hg10 mi
1:30 pm39 °FSunny.No wind56%30.60 "Hg10 mi
1:00 pm36 °FClear.1 mph60%30.60 "Hg5 mi
12:30 pm36 °FClear.1 mph60%30.63 "Hg5 mi
12:00 pm34 °FClear.1 mph65%30.63 "Hg5 mi
11:30 am32 °FClear.1 mph69%30.63 "Hg5 mi
11:00 am28 °FClear.1 mph80%30.66 "Hg5 mi
10:30 am27 °FClear.No wind80%30.66 "Hg5 mi
10:00 am25 °FClear.1 mph86%30.69 "Hg5 mi
9:30 am23 °FSunny.1 mph93%30.69 "Hg10 mi
9:00 am21 °FPassing clouds.2 mph93%30.69 "HgN/A
8:30 am21 °FPassing clouds.1 mph93%30.69 "HgN/A
8:00 am19 °FScattered clouds.No wind93%30.66 "HgN/A
7:30 am18 °FPassing clouds.1 mph93%30.69 "HgN/A
7:00 am18 °FPassing clouds.1 mph93%30.69 "HgN/A
6:30 am18 °FClear.1 mph93%30.66 "Hg10 mi
6:00 am18 °FClear.1 mph93%30.66 "Hg10 mi
5:30 am18 °FClear.1 mph100%30.66 "Hg5 mi
5:00 am18 °FClear.No wind100%30.66 "Hg5 mi
4:00 am19 °FClear.No wind93%30.69 "Hg5 mi
3:00 am19 °FClear.1 mph93%30.69 "Hg5 mi
2:00 am21 °FClear.1 mph93%30.69 "Hg5 mi
1:00 am21 °FClear.No wind100%30.66 "Hg5 mi
12:00 am23 °FClear.1 mph93%30.66 "Hg10 mi
11:00 pm
Wed, Dec 7
23 °FClear.1 mph93%30.66 "Hg10 mi
10:00 pm25 °FClear.2 mph93%30.66 "Hg10 mi
9:30 pm25 °FClear.1 mph93%30.66 "Hg10 mi
9:00 pm25 °FClear.1 mph86%30.66 "Hg10 mi
8:30 pm27 °FClear.3 mph80%30.66 "Hg10 mi
8:00 pm28 °FClear.1 mph86%30.66 "Hg10 mi
7:30 pm28 °FClear.No wind86%30.66 "Hg10 mi
7:00 pm28 °FClear.1 mph86%30.63 "Hg10 mi
6:30 pm28 °FClear.1 mph86%30.63 "Hg10 mi
6:00 pm30 °FPassing clouds.2 mph86%30.63 "HgN/A
5:30 pm32 °FPassing clouds.1 mph80%30.63 "HgN/A
5:00 pm34 °FPassing clouds.1 mph81%30.63 "HgN/A
4:30 pm36 °FPassing clouds.5 mph75%30.63 "HgN/A
4:00 pm36 °FPassing clouds.5 mph70%30.63 "Hg5 mi
3:30 pm37 °FPassing clouds.5 mph65%30.60 "Hg5 mi
3:00 pm39 °FPassing clouds.3 mph65%30.60 "Hg5 mi
Weather by CustomWeather, © 2016

See weather overviewHow to use our weather pages